Location: Schommer Observatory
(40.5200°N, 74.4500°W)
Time: 17:05:50
(UTC-04:00)

Hubble Space Telescope - Visible Passes

Search period start: 18 September 2018 00:00
Search period end: 28 September 2018 00:00
Orbit: 537 x 541 km, 28.5° (Epoch: 17 September)

Date Brightness Start Highest point End Pass type
(mag) Time Alt. Az. Time Alt. Az. Time Alt. Az.
18 Sep 2.9 20:36:34 10° SSW 20:38:28 14° S 20:38:28 14° S visible
19 Sep 2.8 20:25:56 10° SSW 20:28:18 15° S 20:28:40 15° S visible
20 Sep 2.8 20:15:22 10° SW 20:17:48 15° S 20:18:51 14° SSE visible
21 Sep 2.9 20:04:52 10° SW 20:07:17 15° S 20:09:00 12° SSE visible
22 Sep 3.0 19:54:26 10° SW 19:56:47 15° S 19:59:07 10° SSE visible
23 Sep 3.1 19:44:04 10° SW 19:46:16 14° S 19:48:29 10° SSE visible
24 Sep 3.2 19:33:47 10° SW 19:35:45 13° S 19:37:43 10° SSE visible
25 Sep 3.3 19:23:38 10° SW 19:25:14 12° SSW 19:26:50 10° SSE visible
